Flag for United Arab Emirates Weather past 2 weeks in Sharjah, Sharjah, United Arab Emirates

Now
77 °F

Sunny.


Feels Like: 79 °F
Forecast: 64 / 83 °F
Wind: 1 mph from South

Location: Sharjah International Airport

Current Time: Mar 28, 2015 at 9:31:55 AM

Latest Report: Mar 28, 2015 at 9:00 AM


Visibility: 10 mi

Pressure: 30.01 "Hg

Humidity: 61%

Dew point: 63 °F

Location of SharjahLocation

Historic Weather in Sharjah — Graph

°F

Sharjah temperature yesterday

Maximum temperature yesterday: 86 °F (at 11:00 AM)
Minimum temperature yesterday: 72 °F (at 6:00 AM)
Average temperature yesterday: 78 °F

Past Weeks' High & Low Weather Summary

 TemperatureHumidityPressure
High95 °F (Mar 21, 3:00 PM)94% (Mar 24, 7:00 AM)30.09 "Hg (Mar 24, 7:00 AM)
Low55 °F (Mar 14, 6:00 AM)15% (Mar 21, 3:00 PM)29.89 "Hg (Mar 18, 3:00 PM)
Average76 °F51%29.97 "Hg
* Reported Mar 13 8:00 AM — Mar 28 8:00 AM, Sharjah, Weather by CustomWeather, © 2015

Note: Actual official high and low records may vary slightly from our data, if they occured in-between our weather recording intervals... More about our weather records

Advertising

Sharjah weather history for previous 24 hours

 ConditionsComfort  
Time TempWeatherWind HumidityBarometerVisibility
8:00 AM
Sat, Mar 28
73 °FSunny.3 mph78%30.01 "Hg10 mi
7:00 AM68 °FClear.2 mph88%29.98 "Hg5 mi
6:00 AM70 °FClear.2 mph83%29.95 "Hg10 mi
5:00 AM70 °FClear.1 mph88%29.95 "Hg10 mi
4:00 AM72 °FClear.3 mph83%29.95 "Hg10 mi
3:00 AM73 °FClear.3 mph78%29.95 "Hg10 mi
2:00 AM73 °FClear.7 mph83%29.95 "Hg10 mi
1:00 AM73 °FClear.7 mph83%29.98 "Hg10 mi
12:00 AM75 °FClear.3 mph78%29.98 "Hg10 mi
11:00 PM
Fri, Mar 27
77 °FClear.5 mph61%29.95 "Hg10 mi
10:00 PM77 °FClear.2 mph65%29.95 "Hg10 mi
9:00 PM77 °FClear.3 mph65%29.95 "Hg10 mi
8:00 PM79 °FPassing clouds.3 mph58%29.95 "HgN/A
7:00 PM79 °FPassing clouds.8 mph58%29.95 "HgN/A
6:00 PM81 °FSunny.3 mph54%29.95 "Hg10 mi
5:00 PM82 °FSunny.No wind45%29.95 "Hg10 mi
4:00 PM81 °FSunny.6 mph48%29.95 "Hg10 mi
3:00 PM82 °FSunny.6 mph42%29.95 "Hg10 mi
2:00 PM81 °FLight rain. Clear.10 mph48%29.98 "HgN/A
1:00 PM84 °FSunny.14 mph43%30.01 "Hg10 mi
12:00 PM84 °FSunny.14 mph40%30.04 "Hg10 mi
11:00 AM86 °FSunny.9 mph38%30.04 "Hg10 mi
10:00 AM82 °FSunny.7 mph45%30.04 "Hg10 mi
9:00 AM79 °FSunny.5 mph58%30.04 "Hg10 mi
Weather by CustomWeather, © 2015

See weather overviewHow to use our weather pages